Location: Palmerston North
(40.3500°S, 175.6170°E)
Time: 13:36:18
(UTC+12:00)

Daily predictions for brighter satellites

Satellite Brightness Start Highest point End
(mag) Time Altitude Azimuth Time Altitude Azimuth Time Altitude Azimuth
CENTAUR R/B 4.5 17:25:58 10° W 17:32:26 27° SW 17:38:09 10° SSE
Cosmos 405 Rocket 3.1 17:31:40 10° NNE 17:35:15 43° E 17:38:57 10° SSE
USA 234 3.5 17:38:12 10° SE 17:44:42 57° NE 17:51:09 10° NNW
Cosmos 1354 Rocket 4.0 17:39:23 10° SSW 17:44:44 83° ESE 17:50:00 10° NNE
Cosmos 1633 3.9 17:42:12 10° NE 17:44:53 20° E 17:47:37 10° SE
SL-16 R/B 3.5 17:41:07 10° NE 17:45:12 21° E 17:49:17 10° SE
Cosmos 1076 Rocket 4.0 17:43:21 10° NNE 17:47:20 38° E 17:51:24 10° SSE
Cosmos 1606 3.6 17:45:25 10° SSE 17:48:46 28° ESE 17:52:04 10° NE
IRIDIUM 104 4.3 17:44:31 10° S 17:49:49 69° E 17:55:02 10° N
CZ-4B R/B 1.2 17:47:18 10° NNE 17:50:19 57° ESE 17:53:24 10° S
Atlas Centaur 2 3.8 17:46:43 10° WNW 17:50:49 26° N 17:55:47 10° NE
Cosmos 2151 4.1 17:48:42 10° NE 17:52:03 23° E 17:55:26 10° SE
Meteor PRIRODA 3.7 17:51:56 10° SSE 17:55:45 87° ENE 17:59:28 10° NNW
IRIDIUM 114 4.3 17:53:39 10° S 17:58:59 84° E 18:04:14 10° N
Cosmos 1437 Rocket 3.0 17:55:43 10° S 17:59:22 42° ESE 18:03:00 10° NNE
ERS-2 3.6 17:59:21 10° ENE 18:01:48 17° ESE 18:04:17 10° SSE
Cosmos 2292 Rocket 4.4 17:58:55 10° NNE 18:02:57 38° E 18:08:14 10° SSE
Cosmos 1356 3.9 18:00:06 10° NNW 18:03:29 62° W 18:06:57 10° S
Genesis I 4.5 18:00:11 10° WNW 18:03:55 38° SW 18:07:37 10° SSE
ATLAS CENTAUR Rocket 4.0 18:01:51 10° NNW 18:04:00 13° N 18:05:55 10° NE
Cosmos 1242 Rocket 3.8 18:01:40 10° SSE 18:04:39 22° ESE 18:07:35 10° NE
deb Chang Zheng 4 3.6 18:01:44 10° SSE 18:06:06 62° ENE 18:10:25 10° N
Meteor 2-15 4.5 18:00:48 10° S 18:06:58 89° E 18:13:03 10° N
ATLAS 3B R/B 3.2 17:59:29 10° NW 18:06:59 68° SW 18:14:22 10° SSE
Cosmos 2333 Rocket 4.2 18:02:41 10° WNW 18:07:14 24° SW 18:11:52 10° S
Cosmos 2058 3.7 18:03:44 10° NNW 18:07:49 56° W 18:11:58 10° S
Envisat 3.3 18:02:54 10° S 18:08:02 70° WSW 18:13:06 10° NNW
Cosmos 2237 Rocket 2.4 18:07:29 10° NNW 18:13:10 78° WSW 18:18:56 10° SSE
H-2A R/B 4.3 18:09:34 10° S 18:13:11 37° WSW 18:16:43 10° NW
Cosmos 967 Rocket 4.5 18:07:24 10° SSW 18:13:48 64° SE 18:20:05 10° NE
SJ 16-02 2.1 18:10:03 10° S 18:14:02 31° ESE 18:17:59 10° NE
SMAP 3.4 18:10:02 10° SSE 18:14:34 44° E 18:19:02 10° N
Cosmos 1943 Rocket 3.3 18:15:55 10° S 18:20:18 22° SE 18:21:53 20° ESE
NOAA 6 4.0 18:15:45 10° SSE 18:20:56 65° ENE 18:26:02 10° N
H-2A R/B 3.7 18:21:39 19° ENE 18:21:39 19° ENE 18:24:01 10° NE
Cosmos 1553 Rocket 4.0 18:16:41 10° S 18:22:45 59° E 18:28:45 10° NNE
Cosmos 1689 Rocket 2.4 18:20:21 10° NE 18:23:03 38° ESE 18:25:49 10° S
Cosmos 1867 4.4 18:19:54 10° SSW 18:24:38 30° SE 18:26:56 22° E
Cosmos 1763 Rocket 4.4 18:22:26 10° NNE 18:26:50 27° E 18:28:29 23° ESE
Okean O Rocket 2.2 18:34:14 26° SE 18:36:00 35° E 18:40:07 10° NNE
PSLV R/B 3.7 18:33:16 10° S 18:37:06 81° WSW 18:40:49 10° NNW
Cosmos 1417 Rocket 4.5 18:31:36 10° S 18:38:00 67° E 18:44:17 10° NNE
Lacrosse 5 1.9 18:34:26 10° SW 18:39:32 61° SE 18:42:25 25° ENE
Cosmos 2278 Rocket 3.1 18:34:09 10° SSW 18:39:42 52° WNW 18:45:11 10° N
Cosmos 2369 Rocket 3.8 18:39:18 10° S 18:41:48 17° SSE 18:41:48 17° SSE
MOS 1-B 4.3 18:39:33 10° SSE 18:45:27 75° ENE 18:51:17 10° N
Cosmos 1933 3.4 18:42:26 10° S 18:46:33 55° E 18:50:35 10° NNE
BREEZE-M DEB (TANK) 4.2 18:45:09 10° N 18:47:27 24° NE 18:47:27 24° NE
Meteor 2-21 Rocket 4.5 18:42:48 10° N 18:48:55 60° E 18:55:05 10° SSE
CZ-4B R/B 3.2 18:44:37 11° SSE 18:49:42 56° E 18:54:55 10° N
CZ-2C R/B 3.7 18:45:21 10° N 18:50:48 50° W 18:56:18 10° SSW
Cosmos 468 Rocket 4.1 18:50:34 10° N 18:55:43 52° ENE 18:57:19 38° SE
Cosmos 990 Rocket 4.4 18:53:02 10° S 18:57:41 40° ESE 18:57:41 40° ESE
Okean 3 Rocket 3.8 18:54:16 10° NNE 18:57:59 46° ENE 18:57:59 46° ENE
Meteor 2-3 Rocket 3.6 18:56:08 10° N 19:01:45 88° E 19:07:31 10° S
Cosmos 1898 Rocket 4.4 18:57:22 10° S 19:00:48 31° SSE 19:00:48 31° SSE
Cosmos 1655 Rocket 3.9 18:56:11 10° N 19:02:31 84° E 19:08:59 10° S
H-2A R/B 4.0 19:06:48 13° NNE 19:06:48 13° NNE 19:07:26 10° NNE
Cosmos 1766 Rocket 3.6 19:00:09 10° N 19:04:23 59° ENE 19:04:23 59° ENE
PAYLOAD B 4.4 18:59:55 10° S 19:05:34 74° WSW 19:11:06 10° NNW
Cosmos 1461 3.8 19:02:08 10° SW 19:06:23 51° WNW 19:10:48 10° NNE
ATLAS CENTAUR R/B 2.5 19:16:02 10° SSW 19:18:32 33° SSW 19:18:32 33° SSW
Cosmos 1939 Rocket 3.8 19:17:52 20° S 19:20:30 50° WSW 19:24:32 10° NNW
Cosmos 883 Rocket 4.3 19:20:02 10° S 19:26:20 81° E 19:32:36 10° N
Lacrosse 5 rocket 3.6 19:22:34 10° N 19:24:00 18° N 19:24:00 18° N
USA 234 4.0 19:24:16 27° SSE 19:27:34 46° SSW 19:33:47 10° WNW
CZ-2C R/B 3.2 19:25:08 25° S 19:27:55 62° WSW 19:32:37 10° NNW
SL-16 R/B 2.8 19:23:17 10° NW 19:28:49 54° WSW 19:32:00 25° S
ERS-2 4.0 19:31:47 10° NNW 19:35:03 30° W 19:38:23 10° SW
Atlas Centaur 2 4.4 19:35:33 10° WNW 19:39:19 18° NNW 19:41:59 14° N
Cosmos 2266 Rocket 4.5 19:35:06 10° NNW 19:41:03 57° W 19:47:09 10° S
Cosmos 2297 4.1 19:39:17 10° SSW 19:45:00 63° WNW 19:46:44 43° N
SJ 16-02 3.7 19:48:54 10° SW 19:52:25 23° W 19:55:55 10° NNW
Cosmos 1943 Rocket 2.9 19:58:50 10° SSW 20:03:28 51° WSW 20:03:28 51° WSW
Cosmos 1607 4.4 20:01:06 10° SW 20:07:07 55° WNW 20:07:09 55° WNW
Okean O Rocket 3.9 20:11:42 22° WSW 20:12:06 22° WSW 20:15:32 10° WNW
Lacrosse 5 4.0 20:18:12 10° WSW 20:21:42 22° WNW 20:21:42 22° WNW
Cosmos 2369 Rocket 4.3 20:22:08 10° SSW 20:23:37 19° SSW 20:23:37 19° SSW
